East Milton, MA

10:42 AM EST on November 23, 2017 (GMT -0500)
East Milton

Weather History for KMQE - January, 2013

Change the Weather History Date:

Thursday, January 17, 2013

  Actual Average (KOWD) Record (KOWD)
Temperature  
Mean Temperature 34 °F -  
Max Temperature 39 °F 30 °F 50 °F (2012)
Min Temperature 28 °F 14 °F -9 °F (2009)
Degree Days  
Heating Degree Days 32    
Moisture  
Dew Point 25 °F    
Average Humidity 75    
Maximum Humidity 96    
Minimum Humidity 49    
Precipitation  
Precipitation 0.00 in - - ()
Sea Level Pressure  
Sea Level Pressure 29.99 in    
Wind  
Wind Speed 10 mph (West)    
Max Wind Speed 14 mph    
Max Gust Speed 28 mph    
Averages and records for this station are not official NWS values.
T = Trace of Precipitation, MM = Missing Value Source: NWS Daily Summary

Daily Weather History Graph

Daily Weather History Graph

Search for Another Location

Airport or City:

Trip Planner

Search our weather history database for the weather conditions in past years. The results will help you decide how hot, cold, wet, or windy it might be!

Date:

Astronomy

Jan. 17, 2013 Rise Set
Actual Time 7:09 AM EST 4:40 PM EST
Civil Twilight 6:38 AM EST 5:11 PM EST
Nautical Twilight 6:04 AM EST 5:45 PM EST
Astronomical Twilight 5:30 AM EST 6:18 PM EST
Moon 10:06 AM EST (1/17) 11:37 PM EST (1/17)
Length of Visible Light 10h 32m
Length of Day
9h 30m
Waxing Crescent, 37% of the Moon is Illuminated
Jan 17
Waxing Crescent
Jan 18
First Quarter
Jan 26
Full
Feb 3
Last Quarter
Feb 10
New

Hourly Weather History & Observations

Time (EST) Temp. Windchill Dew Point Humidity Pressure Visibility Wind Dir Wind Speed Gust Speed Precip Events Conditions
12:54 AM 32.0 °F 24.2 °F 30.9 °F 96% 29.86 in - WSW 9.2 mph - N/A   Unknown
1:54 AM 32.0 °F 23.6 °F 30.0 °F 92% 29.88 in - WSW 10.4 mph 18.4 mph N/A   Unknown
2:54 AM 32.0 °F 24.2 °F 30.0 °F 92% 29.88 in - SW 9.2 mph - N/A   Unknown
3:54 AM 30.9 °F 22.2 °F 30.0 °F 96% 29.88 in - WSW 10.4 mph - N/A   Unknown
4:54 AM 30.9 °F 21.7 °F 28.9 °F 92% 29.87 in - SW 11.5 mph - N/A   Unknown
5:54 AM 30.0 °F 20.0 °F 28.9 °F 96% 29.89 in - WSW 12.7 mph - N/A   Unknown
6:54 AM 30.0 °F 21.7 °F 28.0 °F 92% 29.91 in - WSW 9.2 mph - N/A   Unknown
7:54 AM 30.0 °F 21.1 °F 28.0 °F 92% 29.94 in - West 10.4 mph - N/A   Unknown
8:54 AM 30.9 °F 22.8 °F 28.0 °F 89% 29.97 in - WSW 9.2 mph - N/A   Unknown
9:54 AM 32.0 °F 23.6 °F 28.9 °F 88% 29.99 in - West 10.4 mph - N/A   Unknown
10:54 AM 33.1 °F 24.9 °F 28.0 °F 82% 29.98 in - WSW 10.4 mph 19.6 mph N/A   Unknown
11:54 AM 36.0 °F 27.1 °F 30.0 °F 79% 29.98 in - West 13.8 mph 21.9 mph N/A   Unknown
12:54 PM 37.9 °F 30.9 °F 28.9 °F 70% 29.98 in - West 10.4 mph 27.6 mph N/A   Unknown
1:54 PM 39.0 °F 31.4 °F 27.0 °F 62% 30.00 in - West 12.7 mph 21.9 mph N/A   Unknown
2:54 PM 39.0 °F 31.8 °F 24.1 °F 55% 30.01 in - WNW 11.5 mph 23.0 mph N/A   Unknown
3:54 PM 37.9 °F 30.5 °F 24.1 °F 57% 30.03 in - WNW 11.5 mph 18.4 mph N/A   Unknown
4:54 PM 36.0 °F 28.5 °F 24.1 °F 62% 30.06 in - WNW 10.4 mph 17.3 mph N/A   Unknown
5:54 PM 36.0 °F 30.3 °F 24.1 °F 62% 30.06 in - WNW 6.9 mph - N/A   Unknown
6:54 PM 35.1 °F 27.9 °F 23.0 °F 61% 30.09 in - WNW 9.2 mph - N/A   Unknown
7:54 PM 33.1 °F 24.4 °F 21.0 °F 61% 30.09 in - NW 11.5 mph 17.3 mph N/A   Unknown
8:54 PM 30.9 °F 23.5 °F 19.0 °F 61% 30.08 in - North 8.1 mph - N/A   Unknown
9:54 PM 30.0 °F 23.2 °F 17.1 °F 59% 30.09 in - NNW 6.9 mph - N/A   Unknown
10:54 PM 28.9 °F 21.1 °F 16.0 °F 58% 30.09 in - NNW 8.1 mph - N/A   Unknown
11:54 PM 28.0 °F 19.3 °F 10.9 °F 49% 30.07 in - NNW 9.2 mph - N/A   Unknown